Location: Melque
(41.0517°N, 4.4694°W)
Time: 11:32:30
(UTC+00:00)

SKYMED 2 - Pass Details

Date: 15 March 2026
Orbit: 622 x 624 km, 97.9° (Epoch: 14 April)

Event Time Altitude Azimuth Distance (km) Brightness Sun altitude
Rises 04:34:05 0° 133° (SE) 2,894 7.4 -22.4°
Reaches altitude 10° 04:36:37 10° 119° (ESE) 1,992 6.7 -21.9°
Maximum altitude 04:40:00 23° 67° (ENE) 1,340 6.1 -21.3°
Drops below altitude 10° 04:43:24 10° 16° (NNE) 2,002 6.6 -20.7°
Sets 04:45:57 0° 2° (N) 2,914 7.2 -20.2°
